Time,TemperatureF,DewpointF,PressureIn,WindDirection,WindDirectionDegrees,WindSpeedMPH,WindSpeedGustMPH,Humidity,HourlyPrecipIn,Conditions,Clouds,dailyrainin,SoftwareType,DateUTC
2014-04-20 00:00:00,57.0,49.2,30.14,West,260,0.0,0.0,75,0.00,SCT,,0.00,WeatherDisplay:10.37,2014-04-20 07:00:00,
2014-04-20 00:01:00,57.0,49.2,30.14,West,260,0.0,0.0,75,0.00,SCT,,0.00,WeatherDisplay:10.37,2014-04-20 07:01:00,
2014-04-20 00:05:00,56.8,49.0,30.14,West,260,0.0,0.0,75,0.00,SCT,,0.00,WeatherDisplay:10.37,2014-04-20 07:05:00,
2014-04-20 00:06:00,56.8,49.0,30.14,West,260,0.0,0.0,75,0.00,SCT,,0.00,WeatherDisplay:10.37,2014-04-20 07:06:00,
2014-04-20 00:07:00,56.8,49.3,30.14,West,260,0.0,0.0,76,0.00,SCT,,0.00,WeatherDisplay:10.37,2014-04-20 07:07:00,
2014-04-20 00:10:00,56.7,49.2,30.14,West,260,0.0,0.0,76,0.00,SCT,,0.00,WeatherDisplay:10.37,2014-04-20 07:10:00,
2014-04-20 00:11:00,56.7,49.2,30.14,West,260,1.2,1.2,76,0.00,SCT,,0.00,WeatherDisplay:10.37,2014-04-20 07:11:00,
2014-04-20 00:12:00,56.7,49.2,30.14,West,260,0.0,0.0,76,0.00,SCT,,0.00,WeatherDisplay:10.37,2014-04-20 07:12:00,
2014-04-20 00:15:00,56.6,49.1,30.14,West,260,0.0,0.0,76,0.00,SCT,,0.00,WeatherDisplay:10.37,2014-04-20 07:15:00,
2014-04-20 00:16:00,56.6,49.1,30.14,West,260,0.0,0.0,76,0.00,SCT,,0.00,WeatherDisplay:10.37,2014-04-20 07:16:00,
2014-04-20 00:17:00,56.5,49.0,30.14,West,260,0.0,0.0,76,0.00,SCT,,0.00,WeatherDisplay:10.37,2014-04-20 07:17:00,
2014-04-20 00:18:00,56.5,49.0,30.14,West,260,0.0,0.0,76,0.00,SCT,,0.00,WeatherDisplay:10.37,2014-04-20 07:18:00,
2014-04-20 00:19:00,56.5,49.0,30.14,West,260,0.0,0.0,76,0.00,SCT,,0.00,WeatherDisplay:10.37,2014-04-20 07:19:00,
2014-04-20 00:20:00,56.5,49.0,30.14,West,260,0.0,0.0,76,0.00,SCT,,0.00,WeatherDisplay:10.37,2014-04-20 07:20:00,
2014-04-20 00:21:00,56.5,49.0,30.14,West,260,0.0,0.0,76,0.00,SCT,,0.00,WeatherDisplay:10.37,2014-04-20 07:21:00,
2014-04-20 00:22:00,56.5,48.7,30.14,West,260,0.0,0.0,75,0.00,SCT,,0.00,WeatherDisplay:10.37,2014-04-20 07:22:00,
2014-04-20 00:23:00,56.5,48.7,30.14,West,260,0.0,0.0,75,0.00,SCT,,0.00,WeatherDisplay:10.37,2014-04-20 07:23:00,
2014-04-20 00:24:00,56.5,49.0,30.14,West,260,0.0,0.0,76,0.00,SCT,,0.00,WeatherDisplay:10.37,2014-04-20 07:24:00,
2014-04-20 00:26:00,56.5,49.0,30.14,West,260,0.0,0.0,76,0.00,SCT,,0.00,WeatherDisplay:10.37,2014-04-20 07:26:00,
2014-04-20 00:28:00,56.4,48.6,30.14,West,260,0.0,0.1,75,0.00,SCT,,0.00,WeatherDisplay:10.37,2014-04-20 07:28:00,
2014-04-20 00:29:00,56.4,48.9,30.14,West,260,1.2,1.2,76,0.00,SCT,,0.00,WeatherDisplay:10.37,2014-04-20 07:29:00,
2014-04-20 00:30:00,56.3,48.5,30.14,West,260,0.0,0.0,75,0.00,SCT,,0.00,WeatherDisplay:10.37,2014-04-20 07:30:00,
2014-04-20 00:31:00,56.3,48.5,30.14,West,260,0.0,0.0,75,0.00,SCT,,0.00,WeatherDisplay:10.37,2014-04-20 07:31:00,
2014-04-20 00:34:00,56.2,48.7,30.14,West,260,0.0,0.0,76,0.00,SCT,,0.00,WeatherDisplay:10.37,2014-04-20 07:34:00,
2014-04-20 00:35:00,56.2,48.7,30.15,West,260,0.0,0.0,76,0.00,SCT,,0.00,WeatherDisplay:10.37,2014-04-20 07:35:00,
2014-04-20 00:36:00,56.2,48.7,30.14,West,260,0.0,0.0,76,0.00,SCT,,0.00,WeatherDisplay:10.37,2014-04-20 07:36:00,
2014-04-20 00:37:00,56.2,48.7,30.14,West,260,0.0,0.0,76,0.00,SCT,,0.00,WeatherDisplay:10.37,2014-04-20 07:37:00,
2014-04-20 00:39:00,56.2,48.7,30.15,West,260,0.0,0.0,76,0.00,SCT,,0.00,WeatherDisplay:10.37,2014-04-20 07:39:00,
2014-04-20 00:40:00,56.2,48.7,30.15,West,260,0.0,0.0,76,0.00,SCT,,0.00,WeatherDisplay:10.37,2014-04-20 07:40:00,
2014-04-20 00:42:00,56.2,48.7,30.14,West,260,0.0,0.0,76,0.00,SCT,,0.00,WeatherDisplay:10.37,2014-04-20 07:42:00,
2014-04-20 00:43:00,56.2,48.7,30.14,West,260,0.0,0.0,76,0.00,SCT,,0.00,WeatherDisplay:10.37,2014-04-20 07:43:00,
2014-04-20 00:44:00,56.2,49.1,30.14,West,260,0.0,0.0,77,0.00,SCT,,0.00,WeatherDisplay:10.37,2014-04-20 07:44:00,
2014-04-20 00:45:00,56.2,48.7,30.15,West,260,0.0,0.0,76,0.00,SCT,,0.00,WeatherDisplay:10.37,2014-04-20 07:45:00,
2014-04-20 00:48:00,56.3,49.2,30.15,West,260,0.0,0.0,77,0.00,SCT,,0.00,WeatherDisplay:10.37,2014-04-20 07:48:00,
2014-04-20 00:50:00,56.3,48.8,30.15,West,260,1.2,0.0,76,0.00,SCT,,0.00,WeatherDisplay:10.37,2014-04-20 07:50:00,
2014-04-20 00:51:00,56.3,49.2,30.15,West,260,0.0,0.0,77,0.00,SCT,,0.00,WeatherDisplay:10.37,2014-04-20 07:51:00,
2014-04-20 00:53:00,56.3,48.8,30.15,West,260,0.0,0.0,76,0.00,SCT,,0.00,WeatherDisplay:10.37,2014-04-20 07:53:00,
2014-04-20 00:55:00,56.3,48.8,30.14,West,260,0.0,0.0,76,0.00,SCT,,0.00,WeatherDisplay:10.37,2014-04-20 07:55:00,
2014-04-20 00:56:00,56.3,48.8,30.14,West,260,0.0,0.0,76,0.00,SCT,,0.00,WeatherDisplay:10.37,2014-04-20 07:56:00,
2014-04-20 00:57:00,56.3,48.8,30.14,West,260,0.0,0.0,76,0.00,SCT,,0.00,WeatherDisplay:10.37,2014-04-20 07:57:00,
2014-04-20 00:58:00,56.3,48.8,30.14,West,260,0.0,0.0,76,0.00,SCT,,0.00,WeatherDisplay:10.37,2014-04-20 07:58:00,
2014-04-20 00:59:00,56.3,48.8,30.14,West,260,0.0,0.0,76,0.00,SCT,,0.00,WeatherDisplay:10.37,2014-04-20 07:59:00,
2014-04-20 01:01:00,56.2,48.7,30.14,West,260,0.0,0.0,76,0.00,SCT,,0.00,WeatherDisplay:10.37,2014-04-20 08:01:00,
2014-04-20 01:02:00,56.2,48.7,30.14,West,260,0.0,0.0,76,0.00,SCT,,0.00,WeatherDisplay:10.37,2014-04-20 08:02:00,
2014-04-20 01:03:00,56.2,48.7,30.14,West,260,0.0,0.0,76,0.00,SCT,,0.00,WeatherDisplay:10.37,2014-04-20 08:03:00,
2014-04-20 01:05:00,56.2,48.7,30.15,West,260,0.0,0.0,76,0.00,SCT,,0.00,WeatherDisplay:10.37,2014-04-20 08:05:00,
2014-04-20 01:08:00,56.1,48.6,30.14,West,260,0.0,0.0,76,0.00,SCT,,0.00,WeatherDisplay:10.37,2014-04-20 08:08:00,
2014-04-20 01:09:00,56.1,48.6,30.15,West,260,0.0,0.0,76,0.00,SCT,,0.00,WeatherDisplay:10.37,2014-04-20 08:09:00,
2014-04-20 01:10:00,56.1,48.6,30.14,West,260,0.0,0.0,76,0.00,SCT,,0.00,WeatherDisplay:10.37,2014-04-20 08:10:00,
2014-04-20 01:13:00,56.1,48.6,30.14,West,260,0.0,0.0,76,0.00,SCT,,0.00,WeatherDisplay:10.37,2014-04-20 08:13:00,
2014-04-20 01:14:00,56.1,48.6,30.14,West,260,0.0,0.0,76,0.00,SCT,,0.00,WeatherDisplay:10.37,2014-04-20 08:14:00,
2014-04-20 01:15:00,56.1,48.6,30.14,West,260,0.0,0.0,76,0.00,SCT,,0.00,WeatherDisplay:10.37,2014-04-20 08:15:00,
2014-04-20 01:16:00,56.1,48.6,30.14,West,260,0.0,0.0,76,0.00,SCT,,0.00,WeatherDisplay:10.37,2014-04-20 08:16:00,
2014-04-20 01:17:00,56.1,48.6,30.14,West,260,0.0,0.0,76,0.00,SCT,,0.00,WeatherDisplay:10.37,2014-04-20 08:17:00,
2014-04-20 01:18:00,56.1,48.6,30.14,West,260,0.0,0.0,76,0.00,SCT,,0.00,WeatherDisplay:10.37,2014-04-20 08:18:00,
2014-04-20 01:20:00,56.1,48.6,30.14,West,260,0.0,0.0,76,0.00,SCT,,0.00,WeatherDisplay:10.37,2014-04-20 08:20:00,
2014-04-20 01:21:00,56.0,48.5,30.14,West,260,0.0,0.0,76,0.00,SCT,,0.00,WeatherDisplay:10.37,2014-04-20 08:21:00,
2014-04-20 01:23:00,56.0,48.5,30.14,West,260,0.0,0.0,76,0.00,SCT,,0.00,WeatherDisplay:10.37,2014-04-20 08:23:00,
2014-04-20 01:25:00,56.0,48.5,30.14,West,260,0.0,0.0,76,0.00,SCT,,0.00,WeatherDisplay:10.37,2014-04-20 08:25:00,
2014-04-20 01:26:00,56.0,48.5,30.14,West,260,0.0,0.0,76,0.00,SCT,,0.00,WeatherDisplay:10.37,2014-04-20 08:26:00,
2014-04-20 01:28:00,56.0,48.5,30.14,West,260,0.0,0.0,76,0.00,SCT,,0.00,WeatherDisplay:10.37,2014-04-20 08:28:00,
2014-04-20 01:30:00,55.9,48.4,30.14,West,260,0.0,0.0,76,0.00,SCT,,0.00,WeatherDisplay:10.37,2014-04-20 08:30:00,
2014-04-20 01:32:00,55.9,48.4,30.14,West,260,0.0,0.0,76,0.00,SCT,,0.00,WeatherDisplay:10.37,2014-04-20 08:32:00,
2014-04-20 01:33:00,55.8,48.3,30.15,West,260,0.0,0.0,76,0.00,SCT,,0.00,WeatherDisplay:10.37,2014-04-20 08:33:00,
2014-04-20 01:34:00,55.8,48.3,30.15,West,260,0.0,0.0,76,0.00,SCT,,0.00,WeatherDisplay:10.37,2014-04-20 08:34:00,
2014-04-20 01:35:00,55.8,48.3,30.15,West,260,0.0,0.0,76,0.00,SCT,,0.00,WeatherDisplay:10.37,2014-04-20 08:35:00,
2014-04-20 01:37:00,55.8,48.3,30.15,ESE,121,1.0,1.0,76,0.00,SCT,,0.00,WeatherDisplay:10.37,2014-04-20 08:37:00,
2014-04-20 01:39:00,55.8,48.3,30.15,ESE,121,0.0,0.0,76,0.00,SCT,,0.00,WeatherDisplay:10.37,2014-04-20 08:39:00,
2014-04-20 01:40:00,55.8,48.3,30.15,ESE,121,0.0,0.0,76,0.00,SCT,,0.00,WeatherDisplay:10.37,2014-04-20 08:40:00,
2014-04-20 01:43:00,55.7,48.2,30.15,ESE,121,0.0,0.0,76,0.00,SCT,,0.00,WeatherDisplay:10.37,2014-04-20 08:43:00,
2014-04-20 01:44:00,55.7,48.6,30.15,ESE,121,0.0,0.0,77,0.00,SCT,,0.00,WeatherDisplay:10.37,2014-04-20 08:44:00,
2014-04-20 01:45:00,55.7,48.6,30.15,ESE,121,0.0,0.0,77,0.00,SCT,,0.00,WeatherDisplay:10.37,2014-04-20 08:45:00,
2014-04-20 01:46:00,55.7,48.6,30.15,ESE,121,0.0,0.0,77,0.00,SCT,,0.00,WeatherDisplay:10.37,2014-04-20 08:46:00,
2014-04-20 01:48:00,55.6,48.2,30.15,ESE,121,0.0,0.0,76,0.00,SCT,,0.00,WeatherDisplay:10.37,2014-04-20 08:48:00,
2014-04-20 01:50:00,55.5,48.1,30.14,ESE,121,0.0,0.0,76,0.00,SCT,,0.00,WeatherDisplay:10.37,2014-04-20 08:50:00,
2014-04-20 01:51:00,55.5,48.1,30.15,ESE,121,0.0,0.0,76,0.00,SCT,,0.00,WeatherDisplay:10.37,2014-04-20 08:51:00,
2014-04-20 01:52:00,55.5,48.1,30.15,ESE,121,0.0,0.0,76,0.00,SCT,,0.00,WeatherDisplay:10.37,2014-04-20 08:52:00,
2014-04-20 01:53:00,55.5,48.1,30.15,ESE,121,0.0,0.0,76,0.00,SCT,,0.00,WeatherDisplay:10.37,2014-04-20 08:53:00,
2014-04-20 01:56:00,55.4,48.0,30.15,ESE,121,0.0,0.0,76,0.00,SCT,,0.00,WeatherDisplay:10.37,2014-04-20 08:56:00,
2014-04-20 01:57:00,55.4,48.0,30.15,ESE,121,0.0,0.0,76,0.00,SCT,,0.00,WeatherDisplay:10.37,2014-04-20 08:57:00,
2014-04-20 01:58:00,55.4,48.0,30.15,ESE,121,0.0,0.0,76,0.00,SCT,,0.00,WeatherDisplay:10.37,2014-04-20 08:58:00,
2014-04-20 02:02:00,55.2,47.8,30.15,ESE,121,0.0,0.0,76,0.00,SCT,,0.00,WeatherDisplay:10.37,2014-04-20 09:02:00,
2014-04-20 02:03:00,55.2,48.1,30.15,ESE,121,0.0,0.0,77,0.00,SCT,,0.00,WeatherDisplay:10.37,2014-04-20 09:03:00,
2014-04-20 02:04:00,55.2,47.8,30.15,ESE,121,0.0,0.0,76,0.00,SCT,,0.00,WeatherDisplay:10.37,2014-04-20 09:04:00,
2014-04-20 02:07:00,55.2,47.8,30.14,ESE,121,0.0,0.0,76,0.00,SCT,,0.00,WeatherDisplay:10.37,2014-04-20 09:07:00,
2014-04-20 02:08:00,55.2,47.8,30.14,ESE,121,0.0,0.0,76,0.00,SCT,,0.00,WeatherDisplay:10.37,2014-04-20 09:08:00,
2014-04-20 02:09:00,55.1,47.7,30.15,ESE,121,0.0,0.0,76,0.00,SCT,,0.00,WeatherDisplay:10.37,2014-04-20 09:09:00,
2014-04-20 02:11:00,55.1,47.7,30.15,ESE,121,0.0,0.0,76,0.00,SCT,,0.00,WeatherDisplay:10.37,2014-04-20 09:11:00,
2014-04-20 02:12:00,55.1,47.7,30.14,ESE,121,0.0,0.0,76,0.00,SCT,,0.00,WeatherDisplay:10.37,2014-04-20 09:12:00,
2014-04-20 02:13:00,55.0,47.6,30.15,ESE,121,0.0,0.0,76,0.00,SCT,,0.00,WeatherDisplay:10.37,2014-04-20 09:13:00,
2014-04-20 02:14:00,55.0,47.6,30.14,ESE,121,0.0,0.0,76,0.00,SCT,,0.00,WeatherDisplay:10.37,2014-04-20 09:14:00,
2014-04-20 02:15:00,55.0,47.6,30.15,ESE,121,0.0,0.0,76,0.00,SCT,,0.00,WeatherDisplay:10.37,2014-04-20 09:15:00,
2014-04-20 02:17:00,55.0,47.6,30.14,ESE,121,0.0,0.0,76,0.00,SCT,,0.00,WeatherDisplay:10.37,2014-04-20 09:17:00,
2014-04-20 02:18:00,54.9,47.8,30.14,ESE,121,0.0,0.0,77,0.00,SCT,,0.00,WeatherDisplay:10.37,2014-04-20 09:18:00,
2014-04-20 02:19:00,54.9,47.5,30.14,ESE,121,0.0,0.0,76,0.00,SCT,,0.00,WeatherDisplay:10.37,2014-04-20 09:19:00,
2014-04-20 02:20:00,54.9,47.5,30.14,ESE,121,0.0,0.0,76,0.00,SCT,,0.00,WeatherDisplay:10.37,2014-04-20 09:20:00,
2014-04-20 02:22:00,55.0,47.6,30.14,ESE,121,0.0,0.0,76,0.00,SCT,,0.00,WeatherDisplay:10.37,2014-04-20 09:22:00,
2014-04-20 02:24:00,55.0,47.9,30.14,ESE,121,0.0,0.0,77,0.00,SCT,,0.00,WeatherDisplay:10.37,2014-04-20 09:24:00,
2014-04-20 02:26:00,55.0,47.9,30.14,ESE,121,0.0,0.0,77,0.00,SCT,,0.00,WeatherDisplay:10.37,2014-04-20 09:26:00,
2014-04-20 02:27:00,54.9,47.8,30.14,ESE,121,0.0,0.0,77,0.00,SCT,,0.00,WeatherDisplay:10.37,2014-04-20 09:27:00,
2014-04-20 02:29:00,54.9,47.8,30.14,ESE,121,0.0,0.0,77,0.00,SCT,,0.00,WeatherDisplay:10.37,2014-04-20 09:29:00,
2014-04-20 02:30:00,54.9,47.8,30.14,ESE,121,0.0,0.0,77,0.00,SCT,,0.00,WeatherDisplay:10.37,2014-04-20 09:30:00,
2014-04-20 02:31:00,54.9,47.8,30.14,ESE,121,0.0,0.0,77,0.00,SCT,,0.00,WeatherDisplay:10.37,2014-04-20 09:31:00,
2014-04-20 02:32:00,54.9,47.8,30.14,ESE,121,0.0,0.0,77,0.00,SCT,,0.00,WeatherDisplay:10.37,2014-04-20 09:32:00,
2014-04-20 02:35:00,54.9,47.8,30.14,ESE,121,0.0,0.0,77,0.00,SCT,,0.00,WeatherDisplay:10.37,2014-04-20 09:35:00,
2014-04-20 02:36:00,54.9,47.8,30.14,ESE,121,0.0,0.0,77,0.00,SCT,,0.00,WeatherDisplay:10.37,2014-04-20 09:36:00,
2014-04-20 02:37:00,55.0,47.9,30.14,ESE,121,0.0,0.0,77,0.00,SCT,,0.00,WeatherDisplay:10.37,2014-04-20 09:37:00,
2014-04-20 02:38:00,55.0,47.9,30.14,ESE,121,0.0,0.0,77,0.00,SCT,,0.00,WeatherDisplay:10.37,2014-04-20 09:38:00,
2014-04-20 02:41:00,54.9,47.8,30.14,ESE,121,0.0,0.0,77,0.00,SCT,,0.00,WeatherDisplay:10.37,2014-04-20 09:41:00,
2014-04-20 02:42:00,54.9,47.8,30.14,ESE,121,0.0,0.0,77,0.00,SCT,,0.00,WeatherDisplay:10.37,2014-04-20 09:42:00,
2014-04-20 02:43:00,55.0,47.9,30.14,ESE,121,0.0,0.0,77,0.00,SCT,,0.00,WeatherDisplay:10.37,2014-04-20 09:43:00,
2014-04-20 02:46:00,55.0,47.9,30.14,ESE,121,0.0,0.0,77,0.00,SCT,,0.00,WeatherDisplay:10.37,2014-04-20 09:46:00,
2014-04-20 02:47:00,55.0,47.9,30.14,ESE,121,0.0,0.0,77,0.00,SCT,,0.00,WeatherDisplay:10.37,2014-04-20 09:47:00,
2014-04-20 02:48:00,55.0,47.9,30.14,ESE,121,0.0,0.0,77,0.00,SCT,,0.00,WeatherDisplay:10.37,2014-04-20 09:48:00,
2014-04-20 02:49:00,55.0,47.9,30.14,ESE,121,0.0,0.0,77,0.00,SCT,,0.00,WeatherDisplay:10.37,2014-04-20 09:49:00,
2014-04-20 02:51:00,55.0,47.9,30.14,ESE,121,0.0,0.0,77,0.00,SCT,,0.00,WeatherDisplay:10.37,2014-04-20 09:51:00,
2014-04-20 02:53:00,55.0,47.9,30.14,ESE,121,0.0,0.0,77,0.00,SCT,,0.00,WeatherDisplay:10.37,2014-04-20 09:53:00,
2014-04-20 02:54:00,55.0,47.9,30.14,ESE,121,0.0,0.0,77,0.00,SCT,,0.00,WeatherDisplay:10.37,2014-04-20 09:54:00,
2014-04-20 02:57:00,55.0,47.9,30.14,ESE,121,0.0,0.0,77,0.00,SCT,,0.00,WeatherDisplay:10.37,2014-04-20 09:57:00,
2014-04-20 02:58:00,55.0,47.9,30.14,ESE,121,0.0,0.0,77,0.00,SCT,,0.00,WeatherDisplay:10.37,2014-04-20 09:58:00,
2014-04-20 02:59:00,55.0,47.9,30.14,ESE,121,0.0,0.0,77,0.00,SCT,,0.00,WeatherDisplay:10.37,2014-04-20 09:59:00,
2014-04-20 03:00:00,55.0,47.9,30.14,ESE,121,0.0,0.0,77,0.00,SCT,,0.00,WeatherDisplay:10.37,2014-04-20 10:00:00,
2014-04-20 03:02:00,55.0,47.9,30.14,ESE,121,0.0,0.0,77,0.00,SCT,,0.00,WeatherDisplay:10.37,2014-04-20 10:02:00,
2014-04-20 03:03:00,55.0,47.9,30.14,ESE,121,0.0,0.0,77,0.00,SCT,,0.00,WeatherDisplay:10.37,2014-04-20 10:03:00,
2014-04-20 03:04:00,55.0,47.9,30.14,ESE,121,0.0,0.0,77,0.00,SCT,,0.00,WeatherDisplay:10.37,2014-04-20 10:04:00,
2014-04-20 03:05:00,55.0,47.9,30.14,ESE,121,0.0,0.0,77,0.00,SCT,,0.00,WeatherDisplay:10.37,2014-04-20 10:05:00,
2014-04-20 03:07:00,55.0,47.9,30.14,ESE,121,0.0,0.0,77,0.00,SCT,,0.00,WeatherDisplay:10.37,2014-04-20 10:07:00,
2014-04-20 03:08:00,55.0,47.9,30.14,ESE,121,0.0,0.0,77,0.00,SCT,,0.00,WeatherDisplay:10.37,2014-04-20 10:08:00,
2014-04-20 03:09:00,55.0,47.9,30.14,ESE,121,0.0,0.0,77,0.00,SCT,,0.00,WeatherDisplay:10.37,2014-04-20 10:09:00,
2014-04-20 03:12:00,54.9,47.8,30.14,ESE,121,0.0,0.0,77,0.00,SCT,,0.00,WeatherDisplay:10.37,2014-04-20 10:12:00,
2014-04-20 03:13:00,54.9,47.8,30.14,ESE,121,0.0,0.0,77,0.00,SCT,,0.00,WeatherDisplay:10.37,2014-04-20 10:13:00,
2014-04-20 03:14:00,54.9,47.8,30.14,ESE,121,0.0,0.0,77,0.00,SCT,,0.00,WeatherDisplay:10.37,2014-04-20 10:14:00,
2014-04-20 03:16:00,54.8,47.7,30.14,ESE,121,0.0,0.0,77,0.00,SCT,,0.00,WeatherDisplay:10.37,2014-04-20 10:16:00,
2014-04-20 03:17:00,54.8,47.7,30.14,ESE,121,0.0,0.0,77,0.00,SCT,,0.00,WeatherDisplay:10.37,2014-04-20 10:17:00,
2014-04-20 03:18:00,54.8,47.7,30.14,ESE,121,0.0,0.0,77,0.00,SCT,,0.00,WeatherDisplay:10.37,2014-04-20 10:18:00,
2014-04-20 03:19:00,54.8,47.7,30.14,ESE,121,0.0,0.0,77,0.00,SCT,,0.00,WeatherDisplay:10.37,2014-04-20 10:19:00,
2014-04-20 03:21:00,54.8,47.7,30.14,ESE,121,0.0,0.0,77,0.00,SCT,,0.00,WeatherDisplay:10.37,2014-04-20 10:21:00,
2014-04-20 03:22:00,54.7,47.6,30.14,ESE,121,0.0,0.0,77,0.00,SCT,,0.00,WeatherDisplay:10.37,2014-04-20 10:22:00,
2014-04-20 03:24:00,54.6,47.5,30.14,ESE,121,0.0,0.0,77,0.00,SCT,,0.00,WeatherDisplay:10.37,2014-04-20 10:24:00,
2014-04-20 03:27:00,54.6,47.5,30.14,ESE,121,0.0,0.0,77,0.00,SCT,,0.00,WeatherDisplay:10.37,2014-04-20 10:27:00,
2014-04-20 03:28:00,54.6,47.5,30.14,ESE,121,0.0,0.0,77,0.00,SCT,,0.00,WeatherDisplay:10.37,2014-04-20 10:28:00,
2014-04-20 03:29:00,54.6,47.5,30.14,ESE,121,0.0,0.0,77,0.00,SCT,,0.00,WeatherDisplay:10.37,2014-04-20 10:29:00,
2014-04-20 03:33:00,54.5,47.4,30.14,ESE,121,0.0,0.0,77,0.00,SCT,,0.00,WeatherDisplay:10.37,2014-04-20 10:33:00,
2014-04-20 03:34:00,54.5,47.4,30.14,ESE,121,0.0,0.0,77,0.00,SCT,,0.00,WeatherDisplay:10.37,2014-04-20 10:34:00,
2014-04-20 03:35:00,54.5,47.4,30.14,ESE,121,0.0,1.0,77,0.00,SCT,,0.00,WeatherDisplay:10.37,2014-04-20 10:35:00,
2014-04-20 03:38:00,54.4,48.0,30.14,ESE,121,1.2,0.0,79,0.00,SCT,,0.00,WeatherDisplay:10.37,2014-04-20 10:38:00,
2014-04-20 03:39:00,54.4,47.7,30.14,ESE,121,0.0,0.0,78,0.00,SCT,,0.00,WeatherDisplay:10.37,2014-04-20 10:39:00,
2014-04-20 03:40:00,54.3,47.6,30.14,ESE,121,0.0,0.0,78,0.00,SCT,,0.00,WeatherDisplay:10.37,2014-04-20 10:40:00,
2014-04-20 03:44:00,54.3,47.6,30.14,ESE,121,0.0,0.0,78,0.00,SCT,,0.00,WeatherDisplay:10.37,2014-04-20 10:44:00,
2014-04-20 03:45:00,54.3,47.6,30.14,ESE,121,0.0,0.0,78,0.00,SCT,,0.00,WeatherDisplay:10.37,2014-04-20 10:45:00,
2014-04-20 03:46:00,54.3,47.6,30.14,ESE,121,0.0,0.0,78,0.00,SCT,,0.00,WeatherDisplay:10.37,2014-04-20 10:46:00,
2014-04-20 03:49:00,54.2,47.5,30.14,ESE,121,0.0,0.0,78,0.00,SCT,,0.00,WeatherDisplay:10.37,2014-04-20 10:49:00,
2014-04-20 03:50:00,54.2,47.5,30.14,ESE,121,0.0,0.0,78,0.00,SCT,,0.00,WeatherDisplay:10.37,2014-04-20 10:50:00,
2014-04-20 03:51:00,54.2,47.5,30.14,ESE,121,0.0,0.0,78,0.00,SCT,,0.00,WeatherDisplay:10.37,2014-04-20 10:51:00,
2014-04-20 03:52:00,54.2,47.5,30.14,ESE,121,0.0,0.0,78,0.00,SCT,,0.00,WeatherDisplay:10.37,2014-04-20 10:52:00,
2014-04-20 03:54:00,54.2,47.5,30.14,ESE,121,0.0,0.0,78,0.00,SCT,,0.00,WeatherDisplay:10.37,2014-04-20 10:54:00,
2014-04-20 03:55:00,54.2,47.5,30.14,ESE,121,0.0,0.0,78,0.00,SCT,,0.00,WeatherDisplay:10.37,2014-04-20 10:55:00,
2014-04-20 03:57:00,54.2,47.5,30.14,ESE,121,0.0,0.0,78,0.00,SCT,,0.00,WeatherDisplay:10.37,2014-04-20 10:57:00,
2014-04-20 03:58:00,54.2,47.5,30.14,ESE,121,0.0,0.0,78,0.00,SCT,,0.00,WeatherDisplay:10.37,2014-04-20 10:58:00,
2014-04-20 03:59:00,54.2,47.8,30.14,ESE,121,0.0,0.0,79,0.00,SCT,,0.00,WeatherDisplay:10.37,2014-04-20 10:59:00,
2014-04-20 04:00:00,54.2,47.5,30.14,ESE,121,0.0,0.0,78,0.00,SCT,,0.00,WeatherDisplay:10.37,2014-04-20 11:00:00,
2014-04-20 04:01:00,54.1,47.7,30.14,ESE,121,0.0,0.0,79,0.00,SCT,,0.00,WeatherDisplay:10.37,2014-04-20 11:01:00,
2014-04-20 04:02:00,54.1,47.4,30.14,ESE,121,0.0,0.0,78,0.00,SCT,,0.00,WeatherDisplay:10.37,2014-04-20 11:02:00,
2014-04-20 04:04:00,54.1,47.7,30.14,ESE,121,0.0,0.0,79,0.00,SCT,,0.00,WeatherDisplay:10.37,2014-04-20 11:04:00,
2014-04-20 04:05:00,54.1,47.4,30.14,ESE,121,0.0,0.0,78,0.00,SCT,,0.00,WeatherDisplay:10.37,2014-04-20 11:05:00,
2014-04-20 04:06:00,54.1,47.7,30.14,ESE,121,0.0,0.0,79,0.00,SCT,,0.00,WeatherDisplay:10.37,2014-04-20 11:06:00,
2014-04-20 04:07:00,54.1,47.7,30.14,ESE,121,0.0,0.0,79,0.00,SCT,,0.00,WeatherDisplay:10.37,2014-04-20 11:07:00,
2014-04-20 04:09:00,54.1,47.4,30.14,ESE,121,0.0,0.0,78,0.00,SCT,,0.00,WeatherDisplay:10.37,2014-04-20 11:09:00,
2014-04-20 04:10:00,54.1,47.7,30.14,ESE,121,0.0,0.0,79,0.00,SCT,,0.00,WeatherDisplay:10.37,2014-04-20 11:10:00,
2014-04-20 04:11:00,54.1,47.7,30.14,ESE,121,0.0,0.0,79,0.00,SCT,,0.00,WeatherDisplay:10.37,2014-04-20 11:11:00,
2014-04-20 04:12:00,54.1,47.7,30.14,ESE,121,0.0,0.0,79,0.00,SCT,,0.00,WeatherDisplay:10.37,2014-04-20 11:12:00,
2014-04-20 04:14:00,54.1,47.4,30.14,ESE,121,0.0,0.0,78,0.00,SCT,,0.00,WeatherDisplay:10.37,2014-04-20 11:14:00,
2014-04-20 04:15:00,54.1,47.4,30.14,ESE,121,0.0,0.0,78,0.00,SCT,,0.00,WeatherDisplay:10.37,2014-04-20 11:15:00,
2014-04-20 04:16:00,54.1,47.4,30.14,ESE,121,0.0,0.0,78,0.00,SCT,,0.00,WeatherDisplay:10.37,2014-04-20 11:16:00,
2014-04-20 04:17:00,54.1,47.7,30.14,ESE,121,0.0,0.0,79,0.00,SCT,,0.00,WeatherDisplay:10.37,2014-04-20 11:17:00,
2014-04-20 04:18:00,54.1,47.4,30.14,ESE,121,0.0,0.0,78,0.00,SCT,,0.00,WeatherDisplay:10.37,2014-04-20 11:18:00,
2014-04-20 04:20:00,54.1,47.7,30.14,ESE,121,0.0,0.0,79,0.00,SCT,,0.00,WeatherDisplay:10.37,2014-04-20 11:20:00,
2014-04-20 04:22:00,54.1,47.7,30.14,ESE,121,0.0,0.0,79,0.00,SCT,,0.00,WeatherDisplay:10.37,2014-04-20 11:22:00,
2014-04-20 04:24:00,54.1,47.7,30.14,ESE,121,0.0,0.0,79,0.00,SCT,,0.00,WeatherDisplay:10.37,2014-04-20 11:24:00,
2014-04-20 04:25:00,54.1,47.7,30.14,ESE,121,0.0,0.0,79,0.00,SCT,,0.00,WeatherDisplay:10.37,2014-04-20 11:25:00,
2014-04-20 04:27:00,54.1,47.7,30.14,ESE,121,0.0,0.0,79,0.00,SCT,,0.00,WeatherDisplay:10.37,2014-04-20 11:27:00,
2014-04-20 04:28:00,54.1,47.7,30.14,ESE,121,0.0,0.0,79,0.00,SCT,,0.00,WeatherDisplay:10.37,2014-04-20 11:28:00,
2014-04-20 04:29:00,54.1,47.7,30.14,ESE,121,0.0,0.0,79,0.00,SCT,,0.00,WeatherDisplay:10.37,2014-04-20 11:29:00,
2014-04-20 04:30:00,54.1,47.7,30.14,ESE,121,0.0,0.0,79,0.00,SCT,,0.00,WeatherDisplay:10.37,2014-04-20 11:30:00,
2014-04-20 04:31:00,54.1,47.7,30.14,ESE,121,0.0,0.0,79,0.00,SCT,,0.00,WeatherDisplay:10.37,2014-04-20 11:31:00,
2014-04-20 04:32:00,54.1,47.7,30.14,ESE,121,0.0,0.0,79,0.00,SCT,,0.00,WeatherDisplay:10.37,2014-04-20 11:32:00,
2014-04-20 04:34:00,54.1,47.7,30.14,ESE,121,0.0,0.0,79,0.00,SCT,,0.00,WeatherDisplay:10.37,2014-04-20 11:34:00,
2014-04-20 04:35:00,54.1,47.7,30.14,ESE,121,0.0,0.0,79,0.00,SCT,,0.00,WeatherDisplay:10.37,2014-04-20 11:35:00,
2014-04-20 04:37:00,54.1,47.7,30.14,ESE,121,0.0,0.0,79,0.00,SCT,,0.00,WeatherDisplay:10.37,2014-04-20 11:37:00,
2014-04-20 04:38:00,54.1,48.1,30.14,ESE,121,0.0,0.0,80,0.00,SCT,,0.00,WeatherDisplay:10.37,2014-04-20 11:38:00,
2014-04-20 04:39:00,54.1,48.1,30.14,ESE,121,0.0,0.0,80,0.00,SCT,,0.00,WeatherDisplay:10.37,2014-04-20 11:39:00,
2014-04-20 04:40:00,54.1,48.1,30.14,ESE,121,0.0,0.0,80,0.00,SCT,,0.00,WeatherDisplay:10.37,2014-04-20 11:40:00,
2014-04-20 04:41:00,54.1,48.1,30.13,ESE,121,0.0,0.0,80,0.00,SCT,,0.00,WeatherDisplay:10.37,2014-04-20 11:41:00,
2014-04-20 04:43:00,54.1,48.1,30.14,ESE,121,0.0,0.0,80,0.00,SCT,,0.00,WeatherDisplay:10.37,2014-04-20 11:43:00,
2014-04-20 04:44:00,54.1,48.1,30.13,ESE,121,0.0,0.0,80,0.00,SCT,,0.00,WeatherDisplay:10.37,2014-04-20 11:44:00,
2014-04-20 04:45:00,54.1,48.0,30.14,ESE,121,0.0,1.0,80,0.00,SCT,,0.00,WeatherDisplay:10.37,2014-04-20 11:45:00,
2014-04-20 04:46:00,54.1,48.1,30.13,ESE,121,1.2,1.2,80,0.00,SCT,,0.00,WeatherDisplay:10.37,2014-04-20 11:46:00,
2014-04-20 04:48:00,54.1,48.1,30.13,ESE,121,1.2,0.0,80,0.00,SCT,,0.00,WeatherDisplay:10.37,2014-04-20 11:48:00,
2014-04-20 04:50:00,54.1,48.1,30.14,ESE,121,0.0,0.0,80,0.00,SCT,,0.00,WeatherDisplay:10.37,2014-04-20 11:50:00,
2014-04-20 04:51:00,54.1,48.1,30.13,ESE,121,0.0,0.0,80,0.00,SCT,,0.00,WeatherDisplay:10.37,2014-04-20 11:51:00,
2014-04-20 04:55:00,54.1,48.1,30.14,ESE,121,0.0,0.0,80,0.00,SCT,,0.00,WeatherDisplay:10.37,2014-04-20 11:55:00,
2014-04-20 04:56:00,54.1,48.1,30.14,ESE,121,0.0,0.0,80,0.00,SCT,,0.00,WeatherDisplay:10.37,2014-04-20 11:56:00,
2014-04-20 04:57:00,54.1,48.4,30.14,ESE,121,0.0,0.0,81,0.00,SCT,,0.00,WeatherDisplay:10.37,2014-04-20 11:57:00,
2014-04-20 04:58:00,54.1,48.4,30.14,ESE,121,0.0,0.0,81,0.00,SCT,,0.00,WeatherDisplay:10.37,2014-04-20 11:58:00,
2014-04-20 05:01:00,54.1,48.1,30.14,ESE,121,0.0,0.0,80,0.00,SCT,,0.00,WeatherDisplay:10.37,2014-04-20 12:01:00,
2014-04-20 05:02:00,54.1,48.4,30.14,ESE,121,0.0,0.0,81,0.00,SCT,,0.00,WeatherDisplay:10.37,2014-04-20 12:02:00,
2014-04-20 05:03:00,54.1,48.4,30.14,ESE,121,0.0,0.0,81,0.00,SCT,,0.00,WeatherDisplay:10.37,2014-04-20 12:03:00,
2014-04-20 05:05:00,54.1,48.4,30.14,ESE,121,0.0,0.4,81,0.00,SCT,,0.00,WeatherDisplay:10.37,2014-04-20 12:05:00,
2014-04-20 05:06:00,54.1,48.4,30.14,ESE,121,1.2,0.0,81,0.00,SCT,,0.00,WeatherDisplay:10.37,2014-04-20 12:06:00,
2014-04-20 05:07:00,54.1,48.1,30.14,ESE,121,0.0,0.0,80,0.00,SCT,,0.00,WeatherDisplay:10.37,2014-04-20 12:07:00,
2014-04-20 05:08:00,54.1,48.4,30.14,ESE,121,0.0,0.1,81,0.00,SCT,,0.00,WeatherDisplay:10.37,2014-04-20 12:08:00,
2014-04-20 05:09:00,54.1,48.4,30.14,ESE,121,0.0,0.1,81,0.00,SCT,,0.00,WeatherDisplay:10.37,2014-04-20 12:09:00,
2014-04-20 05:11:00,54.1,48.4,30.14,ESE,121,0.0,0.0,81,0.00,SCT,,0.00,WeatherDisplay:10.37,2014-04-20 12:11:00,
2014-04-20 05:12:00,54.1,48.4,30.14,ESE,121,0.0,0.0,81,0.00,SCT,,0.00,WeatherDisplay:10.37,2014-04-20 12:12:00,
2014-04-20 05:13:00,54.1,48.4,30.14,ESE,121,1.2,1.2,81,0.00,SCT,,0.00,WeatherDisplay:10.37,2014-04-20 12:13:00,
2014-04-20 05:14:00,54.0,48.3,30.14,ESE,121,0.0,0.0,81,0.00,SCT,,0.00,WeatherDisplay:10.37,2014-04-20 12:14:00,
2014-04-20 05:15:00,54.0,48.3,30.14,ESE,121,0.0,0.1,81,0.00,SCT,,0.00,WeatherDisplay:10.37,2014-04-20 12:15:00,
2014-04-20 05:17:00,54.0,48.3,30.14,ESE,121,1.2,1.2,81,0.00,SCT,,0.00,WeatherDisplay:10.37,2014-04-20 12:17:00,
2014-04-20 05:18:00,54.0,48.3,30.14,ESE,121,1.2,1.2,81,0.00,SCT,,0.00,WeatherDisplay:10.37,2014-04-20 12:18:00,
2014-04-20 05:20:00,54.0,48.3,30.14,ESE,121,0.0,0.0,81,0.00,SCT,,0.00,WeatherDisplay:10.37,2014-04-20 12:20:00,
2014-04-20 05:21:00,54.0,48.3,30.14,ESE,121,0.0,0.0,81,0.00,SCT,,0.00,WeatherDisplay:10.37,2014-04-20 12:21:00,
2014-04-20 05:22:00,54.1,48.4,30.14,ESE,121,0.0,0.0,81,0.00,SCT,,0.00,WeatherDisplay:10.37,2014-04-20 12:22:00,
2014-04-20 05:23:00,54.1,48.4,30.14,ESE,121,0.0,0.0,81,0.00,SCT,,0.00,WeatherDisplay:10.37,2014-04-20 12:23:00,
2014-04-20 05:24:00,54.1,48.4,30.14,ESE,121,0.0,0.0,81,0.00,SCT,,0.00,WeatherDisplay:10.37,2014-04-20 12:24:00,
2014-04-20 05:25:00,54.1,48.4,30.14,ESE,121,0.0,0.3,81,0.00,SCT,,0.00,WeatherDisplay:10.37,2014-04-20 12:25:00,
2014-04-20 05:27:00,54.1,48.4,30.15,ESE,121,0.0,0.0,81,0.00,SCT,,0.00,WeatherDisplay:10.37,2014-04-20 12:27:00,
2014-04-20 05:28:00,54.1,48.4,30.15,ESE,121,0.0,0.0,81,0.00,SCT,,0.00,WeatherDisplay:10.37,2014-04-20 12:28:00,
2014-04-20 05:29:00,54.1,48.4,30.15,ESE,121,0.0,0.0,81,0.00,SCT,,0.00,WeatherDisplay:10.37,2014-04-20 12:29:00,
2014-04-20 05:30:00,54.0,48.3,30.14,ESE,121,0.0,0.0,81,0.00,SCT,,0.00,WeatherDisplay:10.37,2014-04-20 12:30:00,
2014-04-20 05:31:00,54.0,48.3,30.14,ESE,121,0.0,0.0,81,0.00,SCT,,0.00,WeatherDisplay:10.37,2014-04-20 12:31:00,
2014-04-20 05:32:00,54.0,48.3,30.14,ESE,121,0.0,0.0,81,0.00,SCT,,0.00,WeatherDisplay:10.37,2014-04-20 12:32:00,
2014-04-20 05:33:00,54.0,48.3,30.14,ESE,121,0.0,0.0,81,0.00,SCT,,0.00,WeatherDisplay:10.37,2014-04-20 12:33:00,
2014-04-20 05:34:00,54.0,48.3,30.14,ESE,121,1.2,1.2,81,0.00,SCT,,0.00,WeatherDisplay:10.37,2014-04-20 12:34:00,
2014-04-20 05:35:00,54.0,48.3,30.14,ESE,121,1.2,0.0,81,0.00,SCT,,0.00,WeatherDisplay:10.37,2014-04-20 12:35:00,
2014-04-20 05:37:00,54.0,48.3,30.14,ESE,121,0.0,0.0,81,0.00,SCT,,0.00,WeatherDisplay:10.37,2014-04-20 12:37:00,
2014-04-20 05:38:00,53.9,48.2,30.14,ESE,121,0.0,0.0,81,0.00,SCT,,0.00,WeatherDisplay:10.37,2014-04-20 12:38:00,
2014-04-20 05:39:00,53.9,48.2,30.14,ESE,121,0.0,0.0,81,0.00,SCT,,0.00,WeatherDisplay:10.37,2014-04-20 12:39:00,
2014-04-20 05:40:00,53.9,48.2,30.14,ESE,121,0.0,0.0,81,0.00,SCT,,0.00,WeatherDisplay:10.37,2014-04-20 12:40:00,
2014-04-20 05:41:00,53.9,48.2,30.14,ESE,121,1.0,1.0,81,0.00,SCT,,0.00,WeatherDisplay:10.37,2014-04-20 12:41:00,
2014-04-20 05:42:00,53.9,48.2,30.14,ESE,121,1.2,1.2,81,0.00,SCT,,0.00,WeatherDisplay:10.37,2014-04-20 12:42:00,
2014-04-20 05:44:00,54.0,48.3,30.14,ESE,121,0.0,0.0,81,0.00,SCT,,0.00,WeatherDisplay:10.37,2014-04-20 12:44:00,
2014-04-20 05:46:00,54.0,48.3,30.14,ESE,121,1.2,0.0,81,0.00,SCT,,0.00,WeatherDisplay:10.37,2014-04-20 12:46:00,
2014-04-20 05:47:00,54.0,48.3,30.14,ESE,121,2.3,2.3,81,0.00,SCT,,0.00,WeatherDisplay:10.37,2014-04-20 12:47:00,
2014-04-20 05:48:00,54.0,48.3,30.14,ESE,121,1.2,1.2,81,0.00,SCT,,0.00,WeatherDisplay:10.37,2014-04-20 12:48:00,
2014-04-20 05:50:00,53.9,48.2,30.15,ESE,121,0.0,0.0,81,0.00,SCT,,0.00,WeatherDisplay:10.37,2014-04-20 12:50:00,
2014-04-20 05:51:00,53.9,48.2,30.14,ESE,121,0.0,0.0,81,0.00,SCT,,0.00,WeatherDisplay:10.37,2014-04-20 12:51:00,
2014-04-20 05:52:00,53.8,48.1,30.14,ESE,121,1.2,0.0,81,0.00,SCT,,0.00,WeatherDisplay:10.37,2014-04-20 12:52:00,
2014-04-20 05:54:00,53.8,48.1,30.14,ESE,121,0.0,0.0,81,0.00,SCT,,0.00,WeatherDisplay:10.37,2014-04-20 12:54:00,
2014-04-20 05:56:00,53.8,48.1,30.14,ESE,121,0.0,0.0,81,0.00,SCT,,0.00,WeatherDisplay:10.37,2014-04-20 12:56:00,
2014-04-20 05:57:00,53.7,48.0,30.15,ESE,121,0.0,0.0,81,0.00,SCT,,0.00,WeatherDisplay:10.37,2014-04-20 12:57:00,
2014-04-20 05:58:00,53.8,48.4,30.14,ESE,121,0.0,0.0,82,0.00,SCT,,0.00,WeatherDisplay:10.37,2014-04-20 12:58:00,
2014-04-20 06:00:00,53.8,48.1,30.15,ESE,121,0.0,0.0,81,0.00,SCT,,0.00,WeatherDisplay:10.37,2014-04-20 13:00:00,
2014-04-20 06:01:00,53.8,48.1,30.14,ESE,121,0.0,0.0,81,0.00,SCT,,0.00,WeatherDisplay:10.37,2014-04-20 13:01:00,
2014-04-20 06:02:00,53.8,48.1,30.14,ESE,121,0.0,0.0,81,0.00,SCT,,0.00,WeatherDisplay:10.37,2014-04-20 13:02:00,
2014-04-20 06:03:00,53.8,48.1,30.14,ESE,121,0.0,0.0,81,0.00,SCT,,0.00,WeatherDisplay:10.37,2014-04-20 13:03:00,
2014-04-20 06:05:00,53.8,48.1,30.14,ESE,121,0.0,0.0,81,0.00,SCT,,0.00,WeatherDisplay:10.37,2014-04-20 13:05:00,
2014-04-20 06:06:00,53.8,48.1,30.14,ESE,121,0.0,0.0,81,0.00,SCT,,0.00,WeatherDisplay:10.37,2014-04-20 13:06:00,
2014-04-20 06:07:00,53.7,48.0,30.14,ESE,121,0.0,0.0,81,0.00,SCT,,0.00,WeatherDisplay:10.37,2014-04-20 13:07:00,
2014-04-20 06:09:00,53.7,48.0,30.14,ESE,121,0.0,0.0,81,0.00,SCT,,0.00,WeatherDisplay:10.37,2014-04-20 13:09:00,
2014-04-20 06:10:00,53.7,48.0,30.14,ESE,121,0.0,0.0,81,0.00,SCT,,0.00,WeatherDisplay:10.37,2014-04-20 13:10:00,
2014-04-20 06:11:00,53.7,47.7,30.14,ESE,121,0.0,0.0,80,0.00,SCT,,0.00,WeatherDisplay:10.37,2014-04-20 13:11:00,
2014-04-20 06:12:00,53.7,48.0,30.14,ESE,121,0.0,0.0,81,0.00,SCT,,0.00,WeatherDisplay:10.37,2014-04-20 13:12:00,
2014-04-20 06:13:00,53.7,48.0,30.14,ESE,121,0.0,0.0,81,0.00,SCT,,0.00,WeatherDisplay:10.37,2014-04-20 13:13:00,
2014-04-20 06:15:00,53.7,47.7,30.14,ESE,121,0.0,0.0,80,0.00,SCT,,0.00,WeatherDisplay:10.37,2014-04-20 13:15:00,
2014-04-20 06:17:00,53.8,48.1,30.14,ESE,121,0.0,0.0,81,0.00,SCT,,0.00,WeatherDisplay:10.37,2014-04-20 13:17:00,
2014-04-20 06:18:00,53.8,47.8,30.14,ESE,121,0.0,0.0,80,0.00,SCT,,0.00,WeatherDisplay:10.37,2014-04-20 13:18:00,
2014-04-20 06:20:00,53.8,47.8,30.14,ESE,121,0.0,0.0,80,0.00,SCT,,0.00,WeatherDisplay:10.37,2014-04-20 13:20:00,
2014-04-20 06:22:00,53.8,48.1,30.15,ESE,121,0.0,0.0,81,0.00,SCT,,0.00,WeatherDisplay:10.37,2014-04-20 13:22:00,
2014-04-20 06:23:00,53.8,48.1,30.14,ESE,121,0.0,0.0,81,0.00,SCT,,0.00,WeatherDisplay:10.37,2014-04-20 13:23:00,
2014-04-20 06:24:00,53.8,48.1,30.15,ESE,121,0.0,0.0,81,0.00,SCT,,0.00,WeatherDisplay:10.37,2014-04-20 13:24:00,
2014-04-20 06:25:00,53.8,48.1,30.14,ESE,121,0.0,0.0,81,0.00,SCT,,0.00,WeatherDisplay:10.37,2014-04-20 13:25:00,
2014-04-20 06:28:00,53.8,48.1,30.14,ESE,121,1.2,1.2,81,0.00,SCT,,0.00,WeatherDisplay:10.37,2014-04-20 13:28:00,
2014-04-20 06:30:00,53.7,48.0,30.14,ESE,121,1.2,1.2,81,0.00,SCT,,0.00,WeatherDisplay:10.37,2014-04-20 13:30:00,
2014-04-20 06:31:00,53.7,48.0,30.14,ESE,121,1.2,1.2,81,0.00,SCT,,0.00,WeatherDisplay:10.37,2014-04-20 13:31:00,
2014-04-20 06:33:00,53.7,48.0,30.14,ESE,121,1.0,0.0,81,0.00,SCT,,0.00,WeatherDisplay:10.37,2014-04-20 13:33:00,
2014-04-20 06:34:00,53.7,48.0,30.14,ESE,121,0.0,0.0,81,0.00,SCT,,0.00,WeatherDisplay:10.37,2014-04-20 13:34:00,
2014-04-20 06:35:00,53.7,48.0,30.15,ESE,121,0.0,0.0,81,0.00,SCT,,0.00,WeatherDisplay:10.37,2014-04-20 13:35:00,
2014-04-20 06:36:00,53.7,48.0,30.15,ESE,121,0.0,0.0,81,0.00,SCT,,0.00,WeatherDisplay:10.37,2014-04-20 13:36:00,
2014-04-20 06:38:00,53.7,48.0,30.15,ESE,121,0.0,0.0,81,0.00,SCT,,0.00,WeatherDisplay:10.37,2014-04-20 13:38:00,
2014-04-20 06:40:00,53.7,48.0,30.15,ESE,121,0.0,0.0,81,0.00,SCT,,0.00,WeatherDisplay:10.37,2014-04-20 13:40:00,
2014-04-20 06:41:00,53.7,48.0,30.15,ESE,121,0.0,0.1,81,0.00,SCT,,0.00,WeatherDisplay:10.37,2014-04-20 13:41:00,
2014-04-20 06:43:00,53.6,47.9,30.14,ESE,121,0.0,0.1,81,0.00,SCT,,0.00,WeatherDisplay:10.37,2014-04-20 13:43:00,
2014-04-20 06:45:00,53.7,48.0,30.15,ESE,121,0.0,0.0,81,0.00,SCT,,0.00,WeatherDisplay:10.37,2014-04-20 13:45:00,
2014-04-20 06:46:00,53.7,48.0,30.15,ESE,121,0.0,0.0,81,0.00,SCT,,0.00,WeatherDisplay:10.37,2014-04-20 13:46:00,
2014-04-20 06:49:00,53.6,47.9,30.15,ESE,121,0.0,0.0,81,0.00,SCT,,0.00,WeatherDisplay:10.37,2014-04-20 13:49:00,
2014-04-20 06:50:00,53.6,47.9,30.15,ESE,121,0.0,0.0,81,0.00,SCT,,0.00,WeatherDisplay:10.37,2014-04-20 13:50:00,
2014-04-20 06:51:00,53.7,48.0,30.15,ESE,121,0.0,0.0,81,0.00,SCT,,0.00,WeatherDisplay:10.37,2014-04-20 13:51:00,
2014-04-20 06:52:00,53.6,47.9,30.15,ESE,121,0.0,0.0,81,0.00,SCT,,0.00,WeatherDisplay:10.37,2014-04-20 13:52:00,
2014-04-20 06:54:00,53.7,48.0,30.15,ESE,121,0.0,0.0,81,0.00,SCT,,0.00,WeatherDisplay:10.37,2014-04-20 13:54:00,
2014-04-20 06:55:00,53.7,48.0,30.15,ESE,121,0.0,0.0,81,0.00,SCT,,0.00,WeatherDisplay:10.37,2014-04-20 13:55:00,
2014-04-20 06:56:00,53.7,48.0,30.15,ESE,121,0.0,0.0,81,0.00,SCT,,0.00,WeatherDisplay:10.37,2014-04-20 13:56:00,
2014-04-20 06:58:00,53.7,48.0,30.15,ESE,121,0.0,0.0,81,0.00,SCT,,0.00,WeatherDisplay:10.37,2014-04-20 13:58:00,
2014-04-20 06:59:00,53.7,48.0,30.15,ESE,121,0.0,0.0,81,0.00,SCT,,0.00,WeatherDisplay:10.37,2014-04-20 13:59:00,
2014-04-20 07:00:00,53.7,48.0,30.15,ESE,121,0.0,0.0,81,0.00,SCT,,0.00,WeatherDisplay:10.37,2014-04-20 14:00:00,
2014-04-20 07:01:00,53.6,47.9,30.15,ESE,121,0.0,0.0,81,0.00,SCT,,0.00,WeatherDisplay:10.37,2014-04-20 14:01:00,
2014-04-20 07:04:00,53.6,47.9,30.15,ESE,121,0.0,0.0,81,0.00,SCT,,0.00,WeatherDisplay:10.37,2014-04-20 14:04:00,
2014-04-20 07:05:00,53.6,47.9,30.15,ESE,121,0.0,0.0,81,0.00,SCT,,0.00,WeatherDisplay:10.37,2014-04-20 14:05:00,
2014-04-20 07:07:00,53.6,47.9,30.15,ESE,121,0.0,0.0,81,0.00,SCT,,0.00,WeatherDisplay:10.37,2014-04-20 14:07:00,
2014-04-20 07:10:00,53.5,47.8,30.15,ESE,121,0.0,0.0,81,0.00,SCT,,0.00,WeatherDisplay:10.37,2014-04-20 14:10:00,
2014-04-20 07:11:00,53.5,48.1,30.15,ESE,121,0.0,0.0,82,0.00,SCT,,0.00,WeatherDisplay:10.37,2014-04-20 14:11:00,
2014-04-20 07:12:00,53.5,47.8,30.16,ESE,121,0.0,0.0,81,0.00,SCT,,0.00,WeatherDisplay:10.37,2014-04-20 14:12:00,
2014-04-20 07:14:00,53.6,47.9,30.15,ESE,121,0.0,0.0,81,0.00,SCT,,0.00,WeatherDisplay:10.37,2014-04-20 14:14:00,
2014-04-20 07:16:00,53.6,47.9,30.16,ESE,121,0.0,0.0,81,0.00,SCT,,0.00,WeatherDisplay:10.37,2014-04-20 14:16:00,
2014-04-20 07:17:00,53.6,48.2,30.16,ESE,121,0.0,0.0,82,0.00,SCT,,0.00,WeatherDisplay:10.37,2014-04-20 14:17:00,
2014-04-20 07:18:00,53.6,48.2,30.16,ESE,121,0.0,0.0,82,0.00,SCT,,0.00,WeatherDisplay:10.37,2014-04-20 14:18:00,
2014-04-20 07:20:00,53.6,48.2,30.16,ESE,121,0.0,0.0,82,0.00,SCT,,0.00,WeatherDisplay:10.37,2014-04-20 14:20:00,
2014-04-20 07:22:00,53.6,47.9,30.16,ESE,121,0.0,0.0,81,0.00,SCT,,0.00,WeatherDisplay:10.37,2014-04-20 14:22:00,
2014-04-20 07:23:00,53.6,48.2,30.16,ESE,121,0.0,0.0,82,0.00,SCT,,0.00,WeatherDisplay:10.37,2014-04-20 14:23:00,
2014-04-20 07:25:00,53.6,48.2,30.16,ESE,121,0.0,0.0,82,0.00,SCT,,0.00,WeatherDisplay:10.37,2014-04-20 14:25:00,
2014-04-20 07:27:00,53.5,48.1,30.16,ESE,121,0.0,0.0,82,0.00,SCT,,0.00,WeatherDisplay:10.37,2014-04-20 14:27:00,
2014-04-20 07:28:00,53.5,48.1,30.16,ESE,121,0.0,0.0,82,0.00,SCT,,0.00,WeatherDisplay:10.37,2014-04-20 14:28:00,
2014-04-20 07:29:00,53.5,48.1,30.16,ESE,121,0.0,0.0,82,0.00,SCT,,0.00,WeatherDisplay:10.37,2014-04-20 14:29:00,
2014-04-20 07:31:00,53.4,48.0,30.16,ESE,121,0.0,0.0,82,0.00,SCT,,0.00,WeatherDisplay:10.37,2014-04-20 14:31:00,
2014-04-20 07:32:00,53.4,48.0,30.16,ESE,121,0.0,0.0,82,0.00,SCT,,0.00,WeatherDisplay:10.37,2014-04-20 14:32:00,
2014-04-20 07:33:00,53.5,48.1,30.16,ESE,121,0.0,0.0,82,0.00,SCT,,0.00,WeatherDisplay:10.37,2014-04-20 14:33:00,
2014-04-20 07:34:00,53.5,48.1,30.16,ESE,121,0.0,0.0,82,0.00,SCT,,0.00,WeatherDisplay:10.37,2014-04-20 14:34:00,
2014-04-20 07:35:00,53.5,48.1,30.16,ESE,121,0.0,0.0,82,0.00,SCT,,0.00,WeatherDisplay:10.37,2014-04-20 14:35:00,
2014-04-20 07:36:00,53.6,48.2,30.16,ESE,121,0.0,0.0,82,0.00,SCT,,0.00,WeatherDisplay:10.37,2014-04-20 14:36:00,
2014-04-20 07:37:00,53.6,48.2,30.16,ESE,121,0.0,0.0,82,0.00,SCT,,0.00,WeatherDisplay:10.37,2014-04-20 14:37:00,
2014-04-20 07:38:00,53.7,48.3,30.16,ESE,121,0.0,0.0,82,0.00,SCT,,0.00,WeatherDisplay:10.37,2014-04-20 14:38:00,
2014-04-20 07:40:00,53.7,48.3,30.16,ESE,121,0.0,0.0,82,0.00,SCT,,0.00,WeatherDisplay:10.37,2014-04-20 14:40:00,
2014-04-20 07:41:00,53.8,48.4,30.16,ESE,121,0.0,0.0,82,0.00,SCT,,0.00,WeatherDisplay:10.37,2014-04-20 14:41:00,
2014-04-20 07:43:00,53.8,48.4,30.16,ESE,121,0.0,0.0,82,0.00,SCT,,0.00,WeatherDisplay:10.37,2014-04-20 14:43:00,
2014-04-20 07:44:00,53.8,48.4,30.16,ESE,121,0.0,0.0,82,0.00,SCT,,0.00,WeatherDisplay:10.37,2014-04-20 14:44:00,
2014-04-20 07:45:00,53.8,48.4,30.16,ESE,121,0.0,0.0,82,0.00,SCT,,0.00,WeatherDisplay:10.37,2014-04-20 14:45:00,
2014-04-20 07:47:00,53.8,48.1,30.16,ESE,121,0.0,0.0,81,0.00,SCT,,0.00,WeatherDisplay:10.37,2014-04-20 14:47:00,
2014-04-20 07:48:00,53.8,48.4,30.16,ESE,121,0.0,0.0,82,0.00,SCT,,0.00,WeatherDisplay:10.37,2014-04-20 14:48:00,
2014-04-20 07:49:00,53.9,48.5,30.16,ESE,121,0.0,0.0,82,0.00,SCT,,0.00,WeatherDisplay:10.37,2014-04-20 14:49:00,
2014-04-20 07:51:00,53.9,48.5,30.16,ESE,121,0.0,0.0,82,0.00,SCT,,0.00,WeatherDisplay:10.37,2014-04-20 14:51:00,
2014-04-20 07:52:00,54.0,48.3,30.16,ESE,121,0.0,0.0,81,0.00,SCT,,0.00,WeatherDisplay:10.37,2014-04-20 14:52:00,
2014-04-20 07:53:00,54.0,48.3,30.16,North,8,0.0,0.0,81,0.00,SCT,,0.00,WeatherDisplay:10.37,2014-04-20 14:53:00,
2014-04-20 07:54:00,54.0,48.3,30.16,North,7,0.0,0.0,81,0.00,SCT,,0.00,WeatherDisplay:10.37,2014-04-20 14:54:00,
2014-04-20 07:55:00,54.0,48.3,30.16,NNW,347,0.0,0.0,81,0.00,SCT,,0.00,WeatherDisplay:10.37,2014-04-20 14:55:00,
2014-04-20 07:56:00,54.0,48.3,30.16,NNW,347,0.0,0.0,81,0.00,SCT,,0.00,WeatherDisplay:10.37,2014-04-20 14:56:00,
2014-04-20 07:57:00,53.9,48.5,30.16,NNW,347,0.0,0.0,82,0.00,SCT,,0.00,WeatherDisplay:10.37,2014-04-20 14:57:00,
2014-04-20 07:59:00,53.9,48.5,30.16,NNW,347,0.0,0.0,82,0.00,SCT,,0.00,WeatherDisplay:10.37,2014-04-20 14:59:00,
2014-04-20 08:00:00,53.9,48.5,30.16,NNW,347,0.0,0.0,82,0.00,SCT,,0.00,WeatherDisplay:10.37,2014-04-20 15:00:00,
2014-04-20 08:01:00,54.0,48.6,30.16,NNW,347,0.0,0.0,82,0.00,SCT,,0.00,WeatherDisplay:10.37,2014-04-20 15:01:00,
2014-04-20 08:02:00,54.0,48.6,30.16,NNW,347,0.0,0.0,82,0.00,SCT,,0.00,WeatherDisplay:10.37,2014-04-20 15:02:00,
2014-04-20 08:04:00,54.1,48.7,30.16,North,350,0.0,0.0,82,0.00,SCT,,0.00,WeatherDisplay:10.37,2014-04-20 15:04:00,
2014-04-20 08:05:00,54.1,48.7,30.16,North,350,0.0,0.0,82,0.00,SCT,,0.00,WeatherDisplay:10.37,2014-04-20 15:05:00,
2014-04-20 08:08:00,54.2,48.5,30.16,North,350,0.0,0.0,81,0.00,SCT,,0.00,WeatherDisplay:10.37,2014-04-20 15:08:00,
2014-04-20 08:09:00,54.2,48.5,30.16,North,350,0.0,0.0,81,0.00,SCT,,0.00,WeatherDisplay:10.37,2014-04-20 15:09:00,
2014-04-20 08:10:00,54.2,48.8,30.16,North,350,0.0,0.0,82,0.00,SCT,,0.00,WeatherDisplay:10.37,2014-04-20 15:10:00,
2014-04-20 08:11:00,54.2,48.8,30.16,North,350,0.0,0.0,82,0.00,SCT,,0.00,WeatherDisplay:10.37,2014-04-20 15:11:00,
2014-04-20 08:12:00,54.2,48.8,30.16,North,350,0.0,0.0,82,0.00,SCT,,0.00,WeatherDisplay:10.37,2014-04-20 15:12:00,
2014-04-20 08:13:00,54.2,48.8,30.16,North,350,0.0,0.0,82,0.00,SCT,,0.00,WeatherDisplay:10.37,2014-04-20 15:13:00,
2014-04-20 08:14:00,54.2,48.8,30.16,North,350,0.0,0.0,82,0.00,SCT,,0.00,WeatherDisplay:10.37,2014-04-20 15:14:00,
2014-04-20 08:15:00,54.2,48.8,30.16,North,350,0.0,0.0,82,0.00,SCT,,0.00,WeatherDisplay:10.37,2014-04-20 15:15:00,
2014-04-20 08:17:00,54.3,48.9,30.16,North,350,0.0,0.0,82,0.00,SCT,,0.00,WeatherDisplay:10.37,2014-04-20 15:17:00,
2014-04-20 08:18:00,54.4,49.0,30.16,North,350,0.0,0.0,82,0.00,SCT,,0.00,WeatherDisplay:10.37,2014-04-20 15:18:00,
2014-04-20 08:19:00,54.4,48.7,30.16,North,350,0.0,0.0,81,0.00,SCT,,0.00,WeatherDisplay:10.37,2014-04-20 15:19:00,
2014-04-20 08:20:00,54.5,48.8,30.16,North,350,0.0,0.0,81,0.00,SCT,,0.00,WeatherDisplay:10.37,2014-04-20 15:20:00,
2014-04-20 08:21:00,54.5,48.8,30.16,North,350,0.0,0.0,81,0.00,SCT,,0.00,WeatherDisplay:10.37,2014-04-20 15:21:00,
2014-04-20 08:23:00,54.6,48.9,30.16,North,350,0.0,0.0,81,0.00,SCT,,0.00,WeatherDisplay:10.37,2014-04-20 15:23:00,
2014-04-20 08:25:00,54.8,49.1,30.16,North,350,0.0,0.0,81,0.00,SCT,,0.00,WeatherDisplay:10.37,2014-04-20 15:25:00,
2014-04-20 08:26:00,54.8,49.1,30.17,North,350,0.0,0.0,81,0.00,SCT,,0.00,WeatherDisplay:10.37,2014-04-20 15:26:00,
2014-04-20 08:28:00,54.9,48.8,30.17,North,351,0.0,0.0,80,0.00,SCT,,0.00,WeatherDisplay:10.37,2014-04-20 15:28:00,
2014-04-20 08:29:00,54.9,48.8,30.17,NNE,14,0.0,0.0,80,0.00,SCT,,0.00,WeatherDisplay:10.37,2014-04-20 15:29:00,
2014-04-20 08:30:00,54.8,48.7,30.16,NNE,15,2.0,2.0,80,0.00,SCT,,0.00,WeatherDisplay:10.37,2014-04-20 15:30:00,
2014-04-20 08:31:00,54.8,48.7,30.16,North,352,3.5,3.5,80,0.00,SCT,,0.00,WeatherDisplay:10.37,2014-04-20 15:31:00,
2014-04-20 08:32:00,54.8,48.7,30.16,North,350,3.5,3.5,80,0.00,SCT,,0.00,WeatherDisplay:10.37,2014-04-20 15:32:00,
2014-04-20 08:33:00,54.8,48.7,30.17,North,350,2.3,2.3,80,0.00,SCT,,0.00,WeatherDisplay:10.37,2014-04-20 15:33:00,
2014-04-20 08:35:00,54.8,48.8,30.17,North,356,1.0,3.0,80,0.00,SCT,,0.00,WeatherDisplay:10.37,2014-04-20 15:35:00,
2014-04-20 08:36:00,54.9,48.8,30.17,North,350,1.2,0.0,80,0.00,SCT,,0.00,WeatherDisplay:10.37,2014-04-20 15:36:00,
2014-04-20 08:37:00,55.0,48.6,30.17,North,350,0.0,0.0,79,0.00,SCT,,0.00,WeatherDisplay:10.37,2014-04-20 15:37:00,
2014-04-20 08:38:00,55.0,48.9,30.17,North,350,0.0,0.0,80,0.00,SCT,,0.00,WeatherDisplay:10.37,2014-04-20 15:38:00,
2014-04-20 08:39:00,54.9,48.8,30.16,North,350,0.0,0.0,80,0.00,SCT,,0.00,WeatherDisplay:10.37,2014-04-20 15:39:00,
2014-04-20 08:41:00,55.0,48.6,30.16,North,350,0.0,0.0,79,0.00,SCT,,0.00,WeatherDisplay:10.37,2014-04-20 15:41:00,
2014-04-20 08:47:00,55.3,49.2,30.16,NNW,336,2.3,2.3,80,0.00,CLR,,0.00,WeatherDisplay:10.37,2014-04-20 15:47:00,
2014-04-20 08:48:00,55.4,49.3,30.16,NNW,336,2.3,2.3,80,0.00,CLR,,0.00,WeatherDisplay:10.37,2014-04-20 15:48:00,
2014-04-20 08:50:00,56.0,49.6,30.16,NNW,336,2.3,0.0,79,0.00,SCT,,0.00,WeatherDisplay:10.37,2014-04-20 15:50:00,
2014-04-20 08:51:00,56.1,49.7,30.16,NNW,336,2.3,0.0,79,0.00,SCT,,0.00,WeatherDisplay:10.37,2014-04-20 15:51:00,
2014-04-20 08:53:00,56.6,49.5,30.16,NNW,336,0.0,0.0,77,0.00,SCT,,0.00,WeatherDisplay:10.37,2014-04-20 15:53:00,
2014-04-20 08:54:00,56.9,49.4,30.16,NNW,336,0.0,0.0,76,0.00,SCT,,0.00,WeatherDisplay:10.37,2014-04-20 15:54:00,
2014-04-20 08:55:00,57.1,49.6,30.17,NNW,336,0.0,0.0,76,0.00,SCT,,0.00,WeatherDisplay:10.37,2014-04-20 15:55:00,
2014-04-20 08:56:00,57.3,49.4,30.16,NNW,334,0.0,0.0,75,0.00,SCT,,0.00,WeatherDisplay:10.37,2014-04-20 15:56:00,
2014-04-20 08:57:00,57.4,49.5,30.17,NNW,333,0.0,0.0,75,0.00,SCT,,0.00,WeatherDisplay:10.37,2014-04-20 15:57:00,
2014-04-20 08:59:00,57.7,49.5,30.16,WNW,282,0.0,0.0,74,0.00,SCT,,0.00,WeatherDisplay:10.37,2014-04-20 15:59:00,
2014-04-20 09:00:00,57.8,49.6,30.16,WNW,282,0.0,0.0,74,0.00,SCT,,0.00,WeatherDisplay:10.37,2014-04-20 16:00:00,
2014-04-20 09:01:00,58.0,49.8,30.17,WNW,282,0.0,0.0,74,0.00,SCT,,0.00,WeatherDisplay:10.37,2014-04-20 16:01:00,
2014-04-20 09:02:00,58.4,49.8,30.16,WNW,282,0.0,0.0,73,0.00,SCT,,0.00,WeatherDisplay:10.37,2014-04-20 16:02:00,
2014-04-20 09:04:00,58.6,49.6,30.16,WNW,291,1.2,1.2,72,0.00,SCT,,0.00,WeatherDisplay:10.37,2014-04-20 16:04:00,
2014-04-20 09:05:00,58.7,49.7,30.16,WNW,291,1.2,1.2,72,0.00,SCT,,0.00,WeatherDisplay:10.37,2014-04-20 16:05:00,
2014-04-20 09:06:00,58.7,49.3,30.16,WNW,291,1.2,1.2,71,0.00,SCT,,0.00,WeatherDisplay:10.37,2014-04-20 16:06:00,
2014-04-20 09:07:00,58.7,49.7,30.16,NW,323,1.2,1.2,72,0.00,SCT,,0.00,WeatherDisplay:10.37,2014-04-20 16:07:00,
2014-04-20 09:08:00,58.9,49.9,30.16,NW,323,2.3,2.3,72,0.00,SCT,,0.00,WeatherDisplay:10.37,2014-04-20 16:08:00,
2014-04-20 09:09:00,59.1,49.7,30.16,NW,323,1.0,1.0,71,0.00,SCT,,0.00,WeatherDisplay:10.37,2014-04-20 16:09:00,
2014-04-20 09:10:00,59.1,49.7,30.16,NW,323,1.2,1.2,71,0.00,SCT,,0.00,WeatherDisplay:10.37,2014-04-20 16:10:00,
2014-04-20 09:13:00,59.5,50.1,30.16,NNW,347,3.5,0.0,71,0.00,SCT,,0.00,WeatherDisplay:10.37,2014-04-20 16:13:00,
2014-04-20 09:14:00,59.9,50.1,30.16,NNW,347,0.0,0.0,70,0.00,SCT,,0.00,WeatherDisplay:10.37,2014-04-20 16:14:00,
2014-04-20 09:15:00,59.9,49.7,30.16,NNW,347,0.0,0.0,69,0.00,SCT,,0.00,WeatherDisplay:10.37,2014-04-20 16:15:00,
2014-04-20 09:18:00,60.1,49.9,30.16,West,278,0.0,0.0,69,0.00,SCT,,0.00,WeatherDisplay:10.37,2014-04-20 16:18:00,
2014-04-20 09:19:00,60.0,49.8,30.16,West,278,0.0,0.0,69,0.00,SCT,,0.00,WeatherDisplay:10.37,2014-04-20 16:19:00,
2014-04-20 09:21:00,60.1,49.9,30.16,West,278,0.0,0.0,69,0.00,SCT,,0.00,WeatherDisplay:10.37,2014-04-20 16:21:00,
2014-04-20 09:23:00,60.4,50.2,30.16,West,278,0.0,0.0,69,0.00,SCT,,0.00,WeatherDisplay:10.37,2014-04-20 16:23:00,
2014-04-20 09:25:00,60.8,50.2,30.16,West,278,0.0,0.0,68,0.00,SCT,,0.00,WeatherDisplay:10.37,2014-04-20 16:25:00,
2014-04-20 09:26:00,60.9,50.3,30.16,West,278,0.0,0.0,68,0.00,SCT,,0.00,WeatherDisplay:10.37,2014-04-20 16:26:00,
2014-04-20 09:27:00,61.0,50.0,30.16,West,278,0.0,0.0,67,0.00,SCT,,0.00,WeatherDisplay:10.37,2014-04-20 16:27:00,
2014-04-20 09:28:00,61.3,50.2,30.16,WNW,282,0.0,0.0,67,0.00,SCT,,0.00,WeatherDisplay:10.37,2014-04-20 16:28:00,
2014-04-20 09:30:00,61.5,50.4,30.16,WNW,282,0.0,0.0,67,0.00,SCT,,0.00,WeatherDisplay:10.37,2014-04-20 16:30:00,
2014-04-20 09:31:00,61.8,50.7,30.16,WNW,282,0.0,0.0,67,0.00,SCT,,0.00,WeatherDisplay:10.37,2014-04-20 16:31:00,
2014-04-20 09:32:00,61.8,50.3,30.16,WNW,282,0.0,0.0,66,0.00,SCT,,0.00,WeatherDisplay:10.37,2014-04-20 16:32:00,
2014-04-20 09:34:00,62.0,50.5,30.16,WNW,301,1.2,1.2,66,0.00,SCT,,0.00,WeatherDisplay:10.37,2014-04-20 16:34:00,
2014-04-20 09:35:00,62.0,50.5,30.16,WNW,284,0.0,2.0,66,0.00,SCT,,0.00,WeatherDisplay:10.37,2014-04-20 16:35:00,
2014-04-20 09:37:00,62.3,50.8,30.16,NNW,331,1.2,1.2,66,0.00,SCT,,0.00,WeatherDisplay:10.37,2014-04-20 16:37:00,
2014-04-20 09:38:00,62.4,50.9,30.16,NNW,331,2.3,2.3,66,0.00,SCT,,0.00,WeatherDisplay:10.37,2014-04-20 16:38:00,
2014-04-20 09:39:00,62.6,50.7,30.16,North,357,1.2,1.2,65,0.00,SCT,,0.00,WeatherDisplay:10.37,2014-04-20 16:39:00,
2014-04-20 09:40:00,62.8,50.4,30.16,North,357,1.2,0.0,64,0.00,SCT,,0.00,WeatherDisplay:10.37,2014-04-20 16:40:00,
2014-04-20 09:42:00,62.9,50.5,30.16,North,9,2.0,2.0,64,0.00,SCT,,0.00,WeatherDisplay:10.37,2014-04-20 16:42:00,
2014-04-20 09:43:00,62.9,50.5,30.16,North,5,2.3,2.3,64,0.00,SCT,,0.00,WeatherDisplay:10.37,2014-04-20 16:43:00,
2014-04-20 09:45:00,63.1,50.7,30.16,North,353,0.0,0.0,64,0.00,SCT,,0.00,WeatherDisplay:10.37,2014-04-20 16:45:00,
2014-04-20 09:46:00,63.2,50.4,30.16,North,353,0.0,0.0,63,0.00,SCT,,0.00,WeatherDisplay:10.37,2014-04-20 16:46:00,
2014-04-20 09:47:00,63.3,50.5,30.17,North,353,0.0,0.0,63,0.00,SCT,,0.00,WeatherDisplay:10.37,2014-04-20 16:47:00,
2014-04-20 09:48:00,63.3,50.5,30.17,NW,324,0.0,0.0,63,0.00,SCT,,0.00,WeatherDisplay:10.37,2014-04-20 16:48:00,
2014-04-20 09:49:00,63.3,50.5,30.17,NW,324,0.0,0.0,63,0.00,SCT,,0.00,WeatherDisplay:10.37,2014-04-20 16:49:00,
2014-04-20 09:50:00,63.5,51.1,30.17,NW,324,0.0,0.0,64,0.00,SCT,,0.00,WeatherDisplay:10.37,2014-04-20 16:50:00,
2014-04-20 09:51:00,63.7,50.9,30.17,NNE,20,2.3,2.3,63,0.00,SCT,,0.00,WeatherDisplay:10.37,2014-04-20 16:51:00,
2014-04-20 09:52:00,63.9,51.1,30.16,NNE,20,2.3,0.0,63,0.00,SCT,,0.00,WeatherDisplay:10.37,2014-04-20 16:52:00,
2014-04-20 09:53:00,64.0,50.7,30.17,NNE,20,0.0,0.0,62,0.00,SCT,,0.00,WeatherDisplay:10.37,2014-04-20 16:53:00,
2014-04-20 09:54:00,64.0,50.7,30.17,NNE,20,0.0,0.0,62,0.00,SCT,,0.00,WeatherDisplay:10.37,2014-04-20 16:54:00,
2014-04-20 09:56:00,64.3,49.7,30.17,NNE,20,0.0,0.0,59,0.00,SCT,,0.00,WeatherDisplay:10.37,2014-04-20 16:56:00,
2014-04-20 09:58:00,64.3,49.7,30.17,NNW,335,0.0,0.0,59,0.00,SCT,,0.00,WeatherDisplay:10.37,2014-04-20 16:58:00,
2014-04-20 09:59:00,64.5,50.3,30.17,NNW,335,0.0,0.0,60,0.00,SCT,,0.00,WeatherDisplay:10.37,2014-04-20 16:59:00,
2014-04-20 10:00:00,64.6,49.9,30.17,NNW,335,0.0,0.0,59,0.00,SCT,,0.00,WeatherDisplay:10.37,2014-04-20 17:00:00,
2014-04-20 10:01:00,64.8,50.1,30.17,NNW,335,0.0,0.0,59,0.00,SCT,,0.00,WeatherDisplay:10.37,2014-04-20 17:01:00,
2014-04-20 10:02:00,64.9,49.8,30.17,NNW,335,0.0,0.0,58,0.00,SCT,,0.00,WeatherDisplay:10.37,2014-04-20 17:02:00,
2014-04-20 10:03:00,65.1,50.4,30.17,NNW,335,0.0,0.0,59,0.00,SCT,,0.00,WeatherDisplay:10.37,2014-04-20 17:03:00,
2014-04-20 10:04:00,65.2,50.5,30.17,NNW,341,0.0,0.0,59,0.00,SCT,,0.00,WeatherDisplay:10.37,2014-04-20 17:04:00,
2014-04-20 10:05:00,65.3,50.1,30.17,NNW,335,0.0,0.0,58,0.00,SCT,,0.00,WeatherDisplay:10.37,2014-04-20 17:05:00,
2014-04-20 10:06:00,65.6,50.9,30.16,NNW,339,0.0,0.0,59,0.00,SCT,,0.00,WeatherDisplay:10.37,2014-04-20 17:06:00,
2014-04-20 10:08:00,65.9,50.7,30.16,NNW,339,0.0,0.0,58,0.00,SCT,,0.00,WeatherDisplay:10.37,2014-04-20 17:08:00,
2014-04-20 10:09:00,65.9,50.7,30.16,NNW,339,0.0,0.0,58,0.00,SCT,,0.00,WeatherDisplay:10.37,2014-04-20 17:09:00,
2014-04-20 10:10:00,66.1,50.9,30.16,ESE,103,2.3,2.3,58,0.00,SCT,,0.00,WeatherDisplay:10.37,2014-04-20 17:10:00,
2014-04-20 10:12:00,66.3,50.6,30.16,NNE,31,1.2,0.0,57,0.00,SCT,,0.00,WeatherDisplay:10.37,2014-04-20 17:12:00,
2014-04-20 10:14:00,66.5,51.3,30.16,North,1,3.5,3.5,58,0.00,SCT,,0.00,WeatherDisplay:10.37,2014-04-20 17:14:00,
2014-04-20 10:15:00,66.6,50.4,30.16,North,4,1.2,1.2,56,0.00,SCT,,0.00,WeatherDisplay:10.37,2014-04-20 17:15:00,
2014-04-20 10:17:00,66.8,50.6,30.16,North,350,2.3,2.3,56,0.00,SCT,,0.00,WeatherDisplay:10.37,2014-04-20 17:17:00,
2014-04-20 10:19:00,66.8,50.6,30.16,North,350,1.2,1.2,56,0.00,SCT,,0.00,WeatherDisplay:10.37,2014-04-20 17:19:00,
2014-04-20 10:20:00,66.8,50.1,30.16,North,352,1.2,1.2,55,0.00,SCT,,0.00,WeatherDisplay:10.37,2014-04-20 17:20:00,
2014-04-20 10:21:00,66.9,50.2,30.16,North,360,1.0,1.0,55,0.00,SCT,,0.00,WeatherDisplay:10.37,2014-04-20 17:21:00,
2014-04-20 10:23:00,67.1,50.4,30.16,North,360,0.0,0.0,55,0.00,SCT,,0.00,WeatherDisplay:10.37,2014-04-20 17:23:00,
2014-04-20 10:25:00,67.1,50.4,30.16,North,353,0.0,3.0,55,0.00,SCT,,0.00,WeatherDisplay:10.37,2014-04-20 17:25:00,
2014-04-20 10:26:00,67.3,50.6,30.16,NNW,333,1.2,0.0,55,0.00,SCT,,0.00,WeatherDisplay:10.37,2014-04-20 17:26:00,
2014-04-20 10:27:00,67.4,50.7,30.16,NNW,333,1.2,0.0,55,0.00,SCT,,0.00,WeatherDisplay:10.37,2014-04-20 17:27:00,
2014-04-20 10:30:00,67.8,50.0,30.16,NNW,333,0.0,0.0,53,0.00,SCT,,0.00,WeatherDisplay:10.37,2014-04-20 17:30:00,
2014-04-20 10:31:00,68.0,49.7,30.16,NNW,333,0.0,0.0,52,0.00,SCT,,0.00,WeatherDisplay:10.37,2014-04-20 17:31:00,
2014-04-20 10:32:00,68.1,49.8,30.16,NNW,328,0.0,0.0,52,0.00,SCT,,0.00,WeatherDisplay:10.37,2014-04-20 17:32:00,
2014-04-20 10:34:00,68.2,49.9,30.16,NNW,328,0.0,0.0,52,0.00,SCT,,0.00,WeatherDisplay:10.37,2014-04-20 17:34:00,
2014-04-20 10:35:00,68.3,50.0,30.16,NNW,328,0.0,0.0,52,0.00,SCT,,0.00,WeatherDisplay:10.37,2014-04-20 17:35:00,
2014-04-20 10:36:00,68.4,50.1,30.16,NNW,328,0.0,0.0,52,0.00,SCT,,0.00,WeatherDisplay:10.37,2014-04-20 17:36:00,
2014-04-20 10:39:00,68.8,50.5,30.16,NNW,328,0.0,0.0,52,0.00,SCT,,0.00,WeatherDisplay:10.37,2014-04-20 17:39:00,
2014-04-20 10:40:00,69.0,50.6,30.16,NNW,328,0.0,0.0,52,0.00,SCT,,0.00,WeatherDisplay:10.37,2014-04-20 17:40:00,
2014-04-20 10:41:00,69.1,50.7,30.16,NNW,328,0.0,0.0,52,0.00,SCT,,0.00,WeatherDisplay:10.37,2014-04-20 17:41:00,
2014-04-20 10:45:00,69.6,50.1,30.16,NNW,328,0.0,0.0,50,0.00,SCT,,0.00,WeatherDisplay:10.37,2014-04-20 17:45:00,
2014-04-20 10:46:00,69.6,49.6,30.16,NE,45,0.0,0.0,49,0.00,SCT,,0.00,WeatherDisplay:10.37,2014-04-20 17:46:00,
2014-04-20 10:47:00,69.8,50.3,30.16,North,355,2.3,2.3,50,0.00,SCT,,0.00,WeatherDisplay:10.37,2014-04-20 17:47:00,
2014-04-20 10:49:00,70.0,50.0,30.16,NNW,336,2.3,2.3,49,0.00,SCT,,0.00,WeatherDisplay:10.37,2014-04-20 17:49:00,
2014-04-20 10:51:00,70.3,49.7,30.16,NNW,341,0.0,0.0,48,0.00,SCT,,0.00,WeatherDisplay:10.37,2014-04-20 17:51:00,
2014-04-20 10:52:00,70.4,49.8,30.16,East,83,0.0,0.0,48,0.00,SCT,,0.00,WeatherDisplay:10.37,2014-04-20 17:52:00,
2014-04-20 10:53:00,70.5,49.9,30.16,North,351,3.5,3.5,48,0.00,SCT,,0.00,WeatherDisplay:10.37,2014-04-20 17:53:00,
2014-04-20 10:54:00,70.6,50.0,30.16,North,358,3.5,3.5,48,0.00,SCT,,0.00,WeatherDisplay:10.37,2014-04-20 17:54:00,
2014-04-20 10:57:00,70.8,49.6,30.16,NNE,12,2.0,2.0,47,0.00,SCT,,0.00,WeatherDisplay:10.37,2014-04-20 17:57:00,
2014-04-20 10:58:00,70.9,49.7,30.16,North,349,3.5,3.5,47,0.00,SCT,,0.00,WeatherDisplay:10.37,2014-04-20 17:58:00,
2014-04-20 11:00:00,71.0,49.1,30.16,North,6,0.0,3.0,46,0.00,SCT,,0.00,WeatherDisplay:10.37,2014-04-20 18:00:00,
2014-04-20 11:03:00,71.1,48.7,30.16,North,349,0.0,0.0,45,0.00,SCT,,0.00,WeatherDisplay:10.37,2014-04-20 18:03:00,
2014-04-20 11:04:00,71.1,48.1,30.16,NNW,344,2.0,2.0,44,0.00,SCT,,0.00,WeatherDisplay:10.37,2014-04-20 18:04:00,
2014-04-20 11:05:00,71.2,48.8,30.16,North,7,3.5,3.5,45,0.00,SCT,,0.00,WeatherDisplay:10.37,2014-04-20 18:05:00,
2014-04-20 11:08:00,71.5,49.0,30.16,North,2,1.2,1.2,45,0.00,SCT,,0.00,WeatherDisplay:10.37,2014-04-20 18:08:00,
2014-04-20 11:09:00,71.5,49.0,30.16,North,2,1.2,1.2,45,0.00,SCT,,0.00,WeatherDisplay:10.37,2014-04-20 18:09:00,
2014-04-20 11:10:00,71.5,49.1,30.16,North,354,0.0,3.0,45,0.00,SCT,,0.00,WeatherDisplay:10.37,2014-04-20 18:10:00,
2014-04-20 11:11:00,71.9,48.8,30.16,NNE,15,2.3,2.3,44,0.00,SCT,,0.00,WeatherDisplay:10.37,2014-04-20 18:11:00,
2014-04-20 11:14:00,72.1,48.4,30.16,NE,47,0.0,0.1,43,0.00,SCT,,0.00,WeatherDisplay:10.37,2014-04-20 18:14:00,
2014-04-20 11:15:00,72.1,49.0,30.15,NNE,13,0.0,2.0,44,0.00,SCT,,0.00,WeatherDisplay:10.37,2014-04-20 18:15:00,
2014-04-20 11:16:00,72.2,49.1,30.16,NE,46,0.0,0.0,44,0.00,SCT,,0.00,WeatherDisplay:10.37,2014-04-20 18:16:00,
2014-04-20 11:19:00,72.3,49.2,30.16,NE,46,1.2,1.2,44,0.00,SCT,,0.00,WeatherDisplay:10.37,2014-04-20 18:19:00,
2014-04-20 11:20:00,72.4,49.3,30.16,NE,42,2.3,2.3,44,0.00,SCT,,0.00,WeatherDisplay:10.37,2014-04-20 18:20:00,
2014-04-20 11:21:00,72.5,49.3,30.15,North,360,2.3,2.3,44,0.00,SCT,,0.00,WeatherDisplay:10.37,2014-04-20 18:21:00,
2014-04-20 11:22:00,72.6,49.4,30.16,NNE,14,2.3,2.3,44,0.00,SCT,,0.00,WeatherDisplay:10.37,2014-04-20 18:22:00,
2014-04-20 11:24:00,72.9,49.1,30.15,North,357,0.0,0.0,43,0.00,SCT,,0.00,WeatherDisplay:10.37,2014-04-20 18:24:00,
2014-04-20 11:25:00,73.1,49.3,30.15,North,358,0.0,0.0,43,0.00,SCT,,0.00,WeatherDisplay:10.37,2014-04-20 18:25:00,
2014-04-20 11:26:00,73.1,49.3,30.15,North,357,0.0,0.0,43,0.00,SCT,,0.00,WeatherDisplay:10.37,2014-04-20 18:26:00,
2014-04-20 11:27:00,73.3,49.4,30.15,North,9,0.0,0.0,43,0.00,SCT,,0.00,WeatherDisplay:10.37,2014-04-20 18:27:00,
2014-04-20 11:28:00,73.3,49.4,30.15,North,3,0.0,0.1,43,0.00,SCT,,0.00,WeatherDisplay:10.37,2014-04-20 18:28:00,
2014-04-20 11:29:00,73.4,48.9,30.15,North,3,1.2,0.0,42,0.00,SCT,,0.00,WeatherDisplay:10.37,2014-04-20 18:29:00,
2014-04-20 11:31:00,73.5,49.0,30.15,North,356,0.0,0.0,42,0.00,SCT,,0.00,WeatherDisplay:10.37,2014-04-20 18:31:00,
2014-04-20 11:32:00,73.6,49.1,30.15,North,356,0.0,0.0,42,0.00,SCT,,0.00,WeatherDisplay:10.37,2014-04-20 18:32:00,
2014-04-20 11:34:00,73.7,49.2,30.15,North,356,0.0,0.0,42,0.00,SCT,,0.00,WeatherDisplay:10.37,2014-04-20 18:34:00,
2014-04-20 11:35:00,73.7,49.2,30.15,North,356,0.0,0.0,42,0.00,SCT,,0.00,WeatherDisplay:10.37,2014-04-20 18:35:00,
2014-04-20 11:36:00,73.8,48.6,30.15,West,274,0.0,0.0,41,0.00,SCT,,0.00,WeatherDisplay:10.37,2014-04-20 18:36:00,
2014-04-20 11:37:00,74.0,49.4,30.15,SW,215,2.3,2.3,42,0.00,SCT,,0.00,WeatherDisplay:10.37,2014-04-20 18:37:00,
2014-04-20 11:38:00,74.0,48.8,30.16,SW,215,0.0,0.0,41,0.00,SCT,,0.00,WeatherDisplay:10.37,2014-04-20 18:38:00,
2014-04-20 11:40:00,74.2,48.3,30.15,SW,215,0.0,0.0,40,0.00,SCT,,0.00,WeatherDisplay:10.37,2014-04-20 18:40:00,
2014-04-20 11:41:00,74.3,49.1,30.15,SW,215,0.0,0.0,41,0.00,SCT,,0.00,WeatherDisplay:10.37,2014-04-20 18:41:00,
2014-04-20 11:43:00,74.6,48.7,30.15,SW,215,0.0,0.0,40,0.00,SCT,,0.00,WeatherDisplay:10.37,2014-04-20 18:43:00,
2014-04-20 11:45:00,74.7,48.1,30.15,SW,215,0.0,0.0,39,0.00,SCT,,0.00,WeatherDisplay:10.37,2014-04-20 18:45:00,
2014-04-20 11:47:00,74.7,48.8,30.15,SSW,213,0.0,0.0,40,0.00,SCT,,0.00,WeatherDisplay:10.37,2014-04-20 18:47:00,
2014-04-20 11:48:00,74.8,47.5,30.15,SSW,213,1.2,1.2,38,0.00,SCT,,0.00,WeatherDisplay:10.37,2014-04-20 18:48:00,
2014-04-20 11:49:00,74.6,48.0,30.15,SSW,213,0.0,0.0,39,0.00,SCT,,0.00,WeatherDisplay:10.37,2014-04-20 18:49:00,
2014-04-20 11:50:00,74.6,48.0,30.15,SW,215,0.0,1.0,39,0.00,SCT,,0.00,WeatherDisplay:10.37,2014-04-20 18:50:00,
2014-04-20 11:53:00,74.5,47.2,30.15,SSW,213,0.0,0.0,38,0.00,SCT,,0.00,WeatherDisplay:10.37,2014-04-20 18:53:00,
2014-04-20 11:54:00,74.5,48.6,30.15,SSW,213,0.0,0.0,40,0.00,SCT,,0.00,WeatherDisplay:10.37,2014-04-20 18:54:00,
2014-04-20 11:55:00,74.6,48.7,30.15,SSW,213,0.0,0.0,40,0.00,SCT,,0.00,WeatherDisplay:10.37,2014-04-20 18:55:00,
2014-04-20 11:56:00,74.7,48.8,30.15,WSW,239,0.0,0.0,40,0.00,SCT,,0.00,WeatherDisplay:10.37,2014-04-20 18:56:00,
2014-04-20 11:57:00,74.9,48.3,30.15,WSW,239,0.0,0.0,39,0.00,SCT,,0.00,WeatherDisplay:10.37,2014-04-20 18:57:00,
2014-04-20 11:58:00,75.2,48.5,30.15,WNW,299,0.0,0.1,39,0.00,SCT,,0.00,WeatherDisplay:10.37,2014-04-20 18:58:00,
2014-04-20 12:00:00,75.4,48.7,30.15,WNW,299,1.2,1.2,39,0.00,SCT,,0.00,WeatherDisplay:10.37,2014-04-20 19:00:00,
2014-04-20 12:01:00,75.5,49.5,30.15,WNW,299,1.2,0.0,40,0.00,SCT,,0.00,WeatherDisplay:10.37,2014-04-20 19:01:00,
2014-04-20 12:02:00,75.6,48.9,30.15,WNW,299,0.0,0.0,39,0.00,SCT,,0.00,WeatherDisplay:10.37,2014-04-20 19:02:00,